| time (UTC) | temp F | wind direction | speed MPH | gust MPH | rain 1hr in | rain 24hr in | rain mn in | humidity % | barometer mb |
| 20260502130444 | 55 | 321 | 5.0 | 13.0 | 0.00 | 0.30 | 0.00 | 74 | 1021.3 |
| 20260502123442 | 53 | 355 | 6.0 | 13.0 | 0.00 | 0.49 | 0.00 | 78 | 1020.9 |
| 20260502122943 | 53 | 287 | 6.0 | 13.0 | 0.00 | 0.49 | 0.00 | 79 | 1020.8 |
| 20260502122440 | 52 | 34 | 6.0 | 13.0 | 0.00 | 0.49 | 0.00 | 79 | 1020.7 |
| 20260502121940 | 52 | 35 | 5.0 | 13.0 | 0.00 | 0.50 | 0.00 | 80 | 1020.6 |
| 20260502121442 | 52 | 329 | 5.0 | 12.0 | 0.00 | 0.52 | 0.00 | 80 | 1020.5 |
| 20260502121438 | 52 | 24 | 5.0 | 11.0 | 0.00 | 0.52 | 0.00 | 80 | 1020.5 |
| 20260502120439 | 52 | 316 | 6.0 | 12.0 | 0.00 | 0.52 | 0.00 | 81 | 1020.3 |
| 20260502115439 | 51 | 319 | 6.0 | 11.0 | 0.00 | 0.52 | 0.00 | 81 | 1020.3 |
| 20260502114939 | 51 | 14 | 5.0 | 11.0 | 0.00 | 0.52 | 0.00 | 81 | 1020.3 |
| 20260502114439 | 51 | 34 | 5.0 | 11.0 | 0.00 | 0.52 | 0.00 | 81 | 1020.2 |
| 20260502113939 | 51 | 11 | 5.0 | 11.0 | 0.00 | 0.52 | 0.00 | 81 | 1020.2 |
| 20260502113439 | 51 | 22 | 4.0 | 11.0 | 0.00 | 0.52 | 0.00 | 82 | 1020.1 |
| 20260502112943 | 51 | 16 | 4.0 | 10.0 | 0.00 | 0.52 | 0.00 | 82 | 1020.1 |
| 20260502112939 | 51 | 12 | 5.0 | 10.0 | 0.00 | 0.52 | 0.00 | 82 | 1020.1 |
| 20260502111939 | 51 | 9 | 3.0 | 8.0 | 0.00 | 0.52 | 0.00 | 82 | 1020.1 |
| 20260502111439 | 51 | 346 | 4.0 | 9.0 | 0.00 | 0.52 | 0.00 | 82 | 1020.1 |
| 20260502110938 | 51 | 331 | 4.0 | 9.0 | 0.00 | 0.52 | 0.00 | 83 | 1020.0 |
| 20260502110438 | 51 | 28 | 4.0 | 8.0 | 0.00 | 0.53 | 0.00 | 83 | 1020.0 |
| 20260502105944 | 51 | 348 | 2.0 | 8.0 | 0.00 | 0.54 | 0.00 | 84 | 1019.9 |
| 20260502105940 | 51 | 343 | 3.0 | 8.0 | 0.00 | 0.53 | 0.00 | 83 | 1020.1 |
| 20260502105543 | 50 | 15 | 2.0 | 7.0 | 0.00 | 0.55 | 0.00 | 84 | 1020.0 |
| 20260502104439 | 50 | 22 | 1.0 | 6.0 | 0.00 | 0.60 | 0.00 | 84 | 1020.0 |
| 20260502103943 | 50 | 28 | 1.0 | 4.0 | 0.00 | 0.79 | 0.00 | 85 | 1019.9 |
| 20260502103939 | 50 | 349 | 1.0 | 4.0 | 0.00 | 0.67 | 0.00 | 85 | 1020.0 |
| 20260502102937 | 50 | 305 | 1.0 | 4.0 | 0.00 | 0.84 | 0.00 | 85 | 1019.9 |
| 20260502102436 | 50 | 313 | 1.0 | 4.0 | 0.00 | 0.87 | 0.00 | 86 | 1019.9 |
| 20260502101936 | 50 | 319 | 1.0 | 2.0 | 0.00 | 0.88 | 0.00 | 86 | 1019.9 |
| 20260502101441 | 50 | 327 | 0.0 | 2.0 | 0.00 | 0.90 | 0.00 | 86 | 1019.8 |
| 20260502101437 | 50 | 312 | 0.0 | 2.0 | 0.00 | 0.89 | 0.00 | 85 | 1019.8 |
| 20260502100437 | 50 | 317 | 0.0 | 2.0 | 0.00 | 0.92 | 0.00 | 86 | 1019.8 |
| 20260502091433 | 51 | 342 | 0.0 | 2.0 | 0.00 | 1.39 | 0.00 | 83 | 1019.0 |
| 20260502090934 | 52 | 22 | 0.0 | 2.0 | 0.00 | 1.60 | 0.00 | 83 | 1018.9 |
| 20260502090930 | 51 | 331 | 0.0 | 2.0 | 0.00 | 1.44 | 0.00 | 83 | 1018.9 |
| 20260502071421 | 53 | 9 | 4.0 | 10.0 | 0.00 | 1.99 | 0.00 | 82 | 1017.9 |
| 20260502070921 | 53 | 17 | 3.0 | 10.0 | 0.00 | 2.10 | 0.00 | 82 | 1017.9 |
| 20260502070420 | 53 | 336 | 4.0 | 8.0 | 0.00 | 2.13 | 0.00 | 82 | 1017.9 |
| 20260502065921 | 53 | 313 | 4.0 | 10.0 | 0.00 | 2.13 | 0.00 | 82 | 1018.0 |
| 20260502065421 | 53 | 9 | 4.0 | 10.0 | 0.00 | 2.13 | 0.00 | 82 | 1018.0 |
| 20260502064920 | 53 | 40 | 4.0 | 10.0 | 0.00 | 2.13 | 0.00 | 82 | 1018.0 |
| 20260502064419 | 53 | 290 | 3.0 | 9.0 | 0.00 | 2.13 | 0.00 | 82 | 1018.2 |
| 20260502063919 | 53 | 342 | 4.0 | 11.0 | 0.00 | 2.13 | 0.00 | 82 | 1018.3 |
| 20260502063418 | 53 | 59 | 4.0 | 11.0 | 0.00 | 2.13 | 0.00 | 82 | 1018.2 |
| 20260502062923 | 53 | 12 | 3.0 | 7.0 | 0.00 | 2.13 | 0.00 | 81 | 1018.2 |
| 20260502062919 | 53 | 336 | 3.0 | 11.0 | 0.00 | 2.13 | 0.00 | 82 | 1018.2 |
| 20260502061919 | 53 | 39 | 5.0 | 11.0 | 0.00 | 2.14 | 0.00 | 81 | 1018.2 |
| 20260502061419 | 54 | 37 | 5.0 | 11.0 | 0.00 | 2.16 | 0.00 | 81 | 1018.1 |
| 20260502060919 | 54 | 337 | 4.0 | 10.0 | 0.00 | 2.21 | 0.00 | 81 | 1018.0 |
| 20260502060423 | 54 | 323 | 4.0 | 12.0 | 0.00 | 2.30 | 0.00 | 81 | 1018.2 |
| 20260502060419 | 54 | 347 | 4.0 | 12.0 | 0.00 | 2.29 | 0.00 | 81 | 1018.0 |
| 20260502055419 | 54 | 86 | 5.0 | 11.0 | 0.00 | 2.31 | 0.00 | 81 | 1018.3 |
| 20260502054919 | 54 | 17 | 6.0 | 11.0 | 0.00 | 2.31 | 0.00 | 81 | 1018.4 |
| 20260502054418 | 54 | 318 | 5.0 | 16.0 | 0.00 | 2.31 | 0.00 | 81 | 1018.3 |
| 20260502053919 | 54 | 327 | 5.0 | 16.0 | 0.00 | 2.31 | 0.00 | 81 | 1018.3 |
| 20260502053422 | 54 | 24 | 6.0 | 20.0 | 0.00 | 2.31 | 0.00 | 81 | 1018.4 |
| 20260502053418 | 54 | 329 | 5.0 | 11.0 | 0.00 | 2.31 | 0.00 | 81 | 1018.4 |
| 20260502052419 | 54 | 38 | 6.0 | 20.0 | 0.00 | 2.31 | 0.00 | 81 | 1018.2 |
| 20260502051924 | 54 | 43 | 7.0 | 13.0 | 0.00 | 2.31 | 0.00 | 81 | 1018.1 |
| 20260502051919 | 54 | 32 | 6.0 | 13.0 | 0.00 | 2.31 | 0.00 | 81 | 1018.2 |
| 20260502050918 | 54 | 12 | 7.0 | 14.0 | 0.00 | 2.31 | 0.00 | 81 | 1017.8 |
| 20260502050417 | 54 | 80 | 8.0 | 19.0 | 0.00 | 2.31 | 0.00 | 81 | 1017.5 |
| 20260502045915 | 54 | 355 | 9.0 | 19.0 | 0.00 | 2.31 | 2.41 | 81 | 1017.1 |
| 20260502045414 | 55 | 36 | 8.0 | 25.0 | 0.00 | 2.31 | 2.41 | 81 | 1017.0 |
| 20260502044915 | 55 | 18 | 8.0 | 25.0 | 0.00 | 2.31 | 2.41 | 81 | 1017.4 |
| 20260502044415 | 55 | 332 | 7.0 | 16.0 | 0.00 | 2.31 | 2.41 | 80 | 1017.8 |
| 20260502043915 | 55 | 82 | 8.0 | 13.0 | 0.00 | 2.31 | 2.41 | 80 | 1017.9 |
| 20260502043415 | 55 | 42 | 7.0 | 14.0 | 0.00 | 2.31 | 2.41 | 80 | 1017.9 |
| 20260502042915 | 55 | 11 | 8.0 | 14.0 | 0.00 | 2.31 | 2.41 | 80 | 1017.9 |
| 20260502042415 | 55 | 38 | 8.0 | 16.0 | 0.00 | 2.31 | 2.41 | 80 | 1017.8 |
| 20260502041915 | 55 | 13 | 8.0 | 20.0 | 0.00 | 2.31 | 2.41 | 81 | 1017.7 |
| 20260502041415 | 55 | 28 | 8.0 | 20.0 | 0.00 | 2.31 | 2.41 | 81 | 1017.6 |
| 20260502040915 | 55 | 344 | 8.0 | 16.0 | 0.00 | 2.31 | 2.41 | 81 | 1017.6 |
| 20260502040413 | 55 | 36 | 9.0 | 16.0 | 0.00 | 2.31 | 2.41 | 81 | 1017.6 |
| 20260502035911 | 55 | 20 | 8.0 | 19.0 | 0.00 | 2.31 | 2.41 | 81 | 1017.7 |
| 20260502035410 | 55 | 338 | 8.0 | 19.0 | 0.00 | 2.31 | 2.41 | 81 | 1017.7 |
| 20260502034911 | 55 | 336 | 8.0 | 18.0 | 0.00 | 2.31 | 2.41 | 81 | 1017.9 |
| 20260502034411 | 55 | 22 | 7.0 | 15.0 | 0.00 | 2.31 | 2.41 | 81 | 1017.8 |
| 20260502033914 | 55 | 34 | 7.0 | 20.0 | 0.00 | 2.31 | 2.41 | 81 | 1017.7 |
| 20260502033909 | 55 | 36 | 7.0 | 20.0 | 0.00 | 2.31 | 2.41 | 81 | 1017.7 |
| 20260502032909 | 55 | 341 | 7.0 | 16.0 | 0.00 | 2.31 | 2.41 | 81 | 1017.6 |
| 20260502032409 | 55 | 16 | 7.0 | 16.0 | 0.00 | 2.31 | 2.41 | 81 | 1017.5 |
| 20260502031908 | 55 | 18 | 8.0 | 15.0 | 0.00 | 2.31 | 2.41 | 81 | 1017.5 |
| 20260502031407 | 55 | 13 | 7.0 | 18.0 | 0.00 | 2.31 | 2.41 | 81 | 1017.3 |
| 20260502031143 | 55 | 53 | 7.0 | 14.0 | 0.00 | 2.31 | 2.41 | 81 | 1017.0 |
| 20260502031139 | 55 | 59 | 7.0 | 18.0 | 0.00 | 2.31 | 2.41 | 81 | 1017.2 |
| 20260502031134 | 55 | 342 | 8.0 | 21.0 | 0.00 | 2.31 | 2.41 | 81 | 1017.2 |
| 20260502031130 | 55 | 38 | 8.0 | 21.0 | 0.00 | 2.31 | 2.41 | 81 | 1017.0 |
| 20260502025407 | 55 | 53 | 7.0 | 14.0 | 0.00 | 2.31 | 2.41 | 81 | 1017.0 |
| 20260502024910 | 55 | 17 | 6.0 | 15.0 | 0.00 | 2.31 | 2.41 | 81 | 1016.9 |
| 20260502024906 | 55 | 34 | 7.0 | 15.0 | 0.00 | 2.31 | 2.41 | 81 | 1016.7 |
| 20260502023905 | 55 | 346 | 8.0 | 16.0 | 0.00 | 2.31 | 2.41 | 81 | 1016.7 |
| 20260502023405 | 55 | 41 | 7.0 | 16.0 | 0.00 | 2.31 | 2.41 | 81 | 1016.7 |
| 20260502022905 | 55 | 348 | 6.0 | 13.0 | 0.00 | 2.31 | 2.41 | 81 | 1016.8 |
| 20260502022405 | 56 | 350 | 7.0 | 18.0 | 0.00 | 2.31 | 2.41 | 81 | 1016.6 |
| 20260502021905 | 56 | 71 | 9.0 | 21.0 | 0.00 | 2.31 | 2.41 | 80 | 1016.5 |
| 20260502021405 | 56 | 43 | 9.0 | 21.0 | 0.00 | 2.31 | 2.41 | 81 | 1016.5 |
| 20260502020905 | 56 | 331 | 7.0 | 18.0 | 0.00 | 2.31 | 2.41 | 81 | 1016.3 |
| 20260502020405 | 56 | 324 | 6.0 | 19.0 | 0.00 | 2.31 | 2.41 | 82 | 1016.1 |
| 20260502015905 | 56 | 32 | 8.0 | 19.0 | 0.00 | 2.31 | 2.41 | 82 | 1016.1 |
| 20260502015405 | 57 | 34 | 9.0 | 21.0 | 0.00 | 2.31 | 2.41 | 81 | 1016.0 |
| 20260502014905 | 57 | 19 | 9.0 | 21.0 | 0.00 | 2.31 | 2.41 | 81 | 1015.8 |
| 20260502014405 | 57 | 25 | 9.0 | 18.0 | 0.00 | 2.31 | 2.41 | 82 | 1015.6 |
| 20260502013904 | 57 | 355 | 9.0 | 19.0 | 0.00 | 2.31 | 2.41 | 82 | 1015.5 |
| 20260502013405 | 57 | 22 | 9.0 | 21.0 | 0.00 | 2.31 | 2.41 | 82 | 1015.5 |
| 20260502012905 | 58 | 28 | 8.0 | 21.0 | 0.00 | 2.31 | 2.41 | 82 | 1015.5 |
| 20260502012409 | 58 | 344 | 7.0 | 20.0 | 0.00 | 2.31 | 2.41 | 82 | 1015.4 |
| 20260502012405 | 58 | 12 | 8.0 | 20.0 | 0.00 | 2.31 | 2.41 | 82 | 1015.4 |
| 20260502012009 | 58 | 341 | 9.0 | 22.0 | 0.00 | 2.31 | 2.41 | 82 | 1015.2 |
| 20260502010905 | 58 | 19 | 10.0 | 22.0 | 0.00 | 2.31 | 2.41 | 81 | 1015.1 |
| 20260502010405 | 58 | 44 | 9.0 | 19.0 | 0.00 | 2.31 | 2.41 | 82 | 1015.0 |
| 20260502005905 | 58 | 14 | 10.0 | 22.0 | 0.00 | 2.31 | 2.41 | 82 | 1014.9 |
| 20260502005405 | 59 | 43 | 10.0 | 23.0 | 0.00 | 2.31 | 2.41 | 81 | 1014.6 |
| 20260502004904 | 59 | 52 | 8.0 | 23.0 | 0.00 | 2.31 | 2.41 | 81 | 1014.6 |
| 20260502004407 | 59 | 22 | 10.0 | 18.0 | 0.00 | 2.31 | 2.41 | 81 | 1014.3 |
| 20260502004403 | 59 | 325 | 8.0 | 18.0 | 0.00 | 2.31 | 2.41 | 81 | 1014.4 |
| 20260502004007 | 59 | 13 | 10.0 | 21.0 | 0.00 | 2.31 | 2.41 | 81 | 1014.3 |
| 20260502003508 | 60 | 22 | 10.0 | 21.0 | 0.00 | 2.31 | 2.41 | 81 | 1014.3 |
| 20260502002403 | 60 | 13 | 9.0 | 21.0 | 0.00 | 2.31 | 2.41 | 81 | 1014.1 |
| 20260502001903 | 60 | 22 | 9.0 | 21.0 | 0.00 | 2.31 | 2.41 | 81 | 1014.0 |
| 20260502001403 | 60 | 19 | 9.0 | 21.0 | 0.00 | 2.31 | 2.41 | 81 | 1013.9 |
| 20260502000903 | 60 | 5 | 8.0 | 18.0 | 0.00 | 2.31 | 2.41 | 81 | 1013.8 |
| 20260502000406 | 60 | 290 | 10.0 | 20.0 | 0.00 | 2.31 | 2.41 | 81 | 1013.8 |
| 20260502000402 | 60 | 344 | 10.0 | 20.0 | 0.00 | 2.31 | 2.41 | 81 | 1013.8 |
| 20260501235401 | 60 | 0 | 10.0 | 20.0 | 0.00 | 2.31 | 2.41 | 81 | 1013.6 |
| 20260501234901 | 60 | 317 | 10.0 | 21.0 | 0.00 | 2.31 | 2.41 | 80 | 1013.5 |
| 20260501234401 | 61 | 24 | 10.0 | 21.0 | 0.00 | 2.31 | 2.41 | 80 | 1013.3 |
| 20260501233900 | 61 | 317 | 10.0 | 20.0 | 0.00 | 2.31 | 2.41 | 80 | 1013.2 |
| 20260501233401 | 61 | 5 | 9.0 | 20.0 | 0.00 | 2.31 | 2.41 | 80 | 1013.1 |
| 20260501232901 | 61 | 15 | 10.0 | 22.0 | 0.00 | 2.31 | 2.41 | 80 | 1013.1 |
| 20260501232401 | 61 | 15 | 11.0 | 23.0 | 0.00 | 2.31 | 2.41 | 80 | 1012.9 |
| 20260501231901 | 62 | 343 | 11.0 | 23.0 | 0.00 | 2.31 | 2.41 | 80 | 1012.7 |
| 20260501231404 | 62 | 310 | 11.0 | 23.0 | 0.00 | 2.31 | 2.41 | 80 | 1012.7 |
| 20260501231400 | 62 | 327 | 12.0 | 23.0 | 0.00 | 2.31 | 2.41 | 80 | 1012.6 |
| 20260501230359 | 62 | 350 | 9.0 | 23.0 | 0.00 | 2.31 | 2.41 | 80 | 1012.5 |
| 20260501225859 | 62 | 16 | 10.0 | 24.0 | 0.00 | 2.31 | 2.41 | 81 | 1012.4 |
| 20260501225359 | 62 | 312 | 9.0 | 24.0 | 0.00 | 2.31 | 2.41 | 81 | 1012.3 |
| 20260501224903 | 62 | 342 | 10.0 | 23.0 | 0.00 | 2.31 | 2.41 | 81 | 1012.3 |
| 20260501224859 | 62 | 336 | 9.0 | 23.0 | 0.00 | 2.31 | 2.41 | 81 | 1012.5 |
| 20260501224503 | 62 | 26 | 11.0 | 23.0 | 0.00 | 2.31 | 2.41 | 81 | 1012.2 |
| 20260501224003 | 62 | 349 | 9.0 | 21.0 | 0.00 | 2.31 | 2.41 | 80 | 1012.2 |
| 20260501222855 | 63 | 55 | 9.0 | 23.0 | 0.00 | 2.31 | 2.41 | 80 | 1012.2 |
| 20260501222359 | 63 | 48 | 8.0 | 21.0 | 0.00 | 2.31 | 2.41 | 81 | 1012.3 |
| 20260501222355 | 63 | 323 | 9.0 | 23.0 | 0.00 | 2.31 | 2.41 | 80 | 1012.3 |
| 20260501221355 | 62 | 33 | 9.0 | 20.0 | 0.00 | 2.31 | 2.41 | 82 | 1012.3 |
| 20260501220859 | 62 | 5 | 6.0 | 22.0 | 0.00 | 2.31 | 2.41 | 83 | 1012.6 |
| 20260501220855 | 62 | 5 | 8.0 | 22.0 | 0.00 | 2.31 | 2.41 | 82 | 1012.5 |
| 20260501220459 | 62 | 321 | 6.0 | 16.0 | 0.00 | 2.31 | 2.41 | 83 | 1012.6 |
| 20260501215355 | 62 | 61 | 7.0 | 14.0 | 0.00 | 2.31 | 2.41 | 83 | 1012.8 |
| 20260501214856 | 62 | 333 | 6.0 | 13.0 | 0.00 | 2.31 | 2.41 | 83 | 1012.8 |
| 20260501214355 | 62 | 355 | 6.0 | 16.0 | 0.00 | 2.31 | 2.41 | 83 | 1012.5 |
| 20260501213855 | 62 | 336 | 7.0 | 16.0 | 0.00 | 2.31 | 2.41 | 83 | 1012.3 |
| 20260501213353 | 62 | 26 | 6.0 | 15.0 | 0.01 | 2.31 | 2.41 | 83 | 1012.1 |
| 20260501212853 | 62 | 309 | 5.0 | 14.0 | 0.01 | 2.31 | 2.41 | 83 | 1012.1 |
| 20260501212354 | 63 | 23 | 6.0 | 13.0 | 0.01 | 2.31 | 2.41 | 84 | 1012.1 |
| 20260501211853 | 63 | 15 | 7.0 | 13.0 | 0.01 | 2.31 | 2.41 | 83 | 1011.8 |
| 20260501211353 | 63 | 26 | 7.0 | 22.0 | 0.01 | 2.31 | 2.41 | 83 | 1011.8 |
| 20260501210853 | 63 | 330 | 6.0 | 22.0 | 0.01 | 2.31 | 2.41 | 83 | 1012.0 |
| 20260501210358 | 63 | 22 | 5.0 | 18.0 | 0.02 | 2.31 | 2.41 | 84 | 1012.2 |
| 20260501210354 | 63 | 27 | 5.0 | 13.0 | 0.02 | 2.31 | 2.41 | 84 | 1011.8 |
| 20260501205353 | 63 | 302 | 7.0 | 18.0 | 0.02 | 2.31 | 2.41 | 84 | 1012.3 |
| 20260501204852 | 63 | 313 | 6.0 | 15.0 | 0.02 | 2.31 | 2.41 | 84 | 1012.1 |
| 20260501204351 | 64 | 38 | 4.0 | 13.0 | 0.02 | 2.31 | 2.41 | 84 | 1012.2 |
| 20260501203852 | 64 | 43 | 4.0 | 12.0 | 0.02 | 2.31 | 2.41 | 85 | 1012.1 |
| 20260501203351 | 64 | 234 | 5.0 | 12.0 | 0.01 | 2.30 | 2.40 | 85 | 1012.1 |
| 20260501202851 | 63 | 265 | 4.0 | 10.0 | 0.01 | 2.30 | 2.40 | 85 | 1012.3 |
| 20260501202351 | 64 | 322 | 4.0 | 10.0 | 0.01 | 2.30 | 2.40 | 85 | 1012.4 |
| 20260501201851 | 64 | 317 | 5.0 | 14.0 | 0.01 | 2.30 | 2.40 | 85 | 1012.4 |
| 20260501201352 | 64 | 326 | 4.0 | 14.0 | 0.01 | 2.30 | 2.40 | 85 | 1012.3 |
| 20260501200854 | 65 | 322 | 6.0 | 16.0 | 0.00 | 2.29 | 2.39 | 82 | 1012.0 |
| 20260501200850 | 65 | 350 | 5.0 | 16.0 | 0.01 | 2.30 | 2.40 | 84 | 1012.2 |
| 20260501195849 | 65 | 343 | 6.0 | 16.0 | 0.00 | 2.29 | 2.39 | 81 | 1011.7 |
| 20260501195351 | 66 | 351 | 7.0 | 18.0 | 0.00 | 2.29 | 2.39 | 79 | 1011.7 |
| 20260501195347 | 66 | 13 | 7.0 | 16.0 | 0.00 | 2.29 | 2.39 | 80 | 1011.8 |
| 20260501194347 | 67 | 329 | 7.0 | 18.0 | 0.00 | 2.29 | 2.39 | 79 | 1011.4 |
| 20260501193847 | 67 | 342 | 7.0 | 16.0 | 0.00 | 2.29 | 2.39 | 79 | 1011.0 |
| 20260501193351 | 68 | 40 | 8.0 | 18.0 | 0.00 | 2.29 | 2.39 | 78 | 1010.5 |
| 20260501193347 | 67 | 40 | 8.0 | 16.0 | 0.00 | 2.29 | 2.39 | 79 | 1010.7 |
| 20260501192351 | 68 | 73 | 10.0 | 19.0 | 0.00 | 2.29 | 2.39 | 78 | 1010.5 |
| 20260501192347 | 68 | 26 | 8.0 | 19.0 | 0.00 | 2.29 | 2.39 | 79 | 1010.6 |
| 20260501191351 | 67 | 43 | 9.0 | 19.0 | 0.00 | 2.29 | 2.39 | 80 | 1010.2 |
| 20260501191346 | 68 | 32 | 9.0 | 16.0 | 0.00 | 2.29 | 2.39 | 80 | 1010.2 |
| 20260501190347 | 67 | 13 | 9.0 | 19.0 | 0.00 | 2.29 | 2.39 | 81 | 1010.4 |
| 20260501185847 | 67 | 37 | 10.0 | 19.0 | 0.00 | 2.29 | 2.39 | 81 | 1010.5 |
| 20260501185347 | 67 | 22 | 9.0 | 19.0 | 0.00 | 2.29 | 2.39 | 82 | 1010.6 |
| 20260501184847 | 67 | 53 | 8.0 | 19.0 | 0.00 | 2.29 | 2.39 | 84 | 1010.8 |
| 20260501184351 | 65 | 347 | 9.0 | 19.0 | 0.00 | 2.29 | 2.39 | 87 | 1011.1 |
| 20260501184347 | 66 | 23 | 9.0 | 16.0 | 0.00 | 2.29 | 2.39 | 85 | 1010.8 |
| 20260501183345 | 65 | 336 | 9.0 | 19.0 | 0.00 | 2.29 | 2.39 | 88 | 1011.3 |
| 20260501182845 | 64 | 333 | 8.0 | 18.0 | 0.00 | 2.29 | 2.39 | 89 | 1011.5 |
| 20260501182345 | 64 | 17 | 7.0 | 16.0 | 0.00 | 2.29 | 2.39 | 90 | 1011.6 |
| 20260501181845 | 64 | 327 | 5.0 | 16.0 | 0.00 | 2.29 | 2.39 | 90 | 1011.8 |
| 20260501181345 | 63 | 325 | 6.0 | 12.0 | 0.00 | 2.29 | 2.39 | 91 | 1012.1 |
| 20260501180849 | 62 | 311 | 4.0 | 12.0 | 0.01 | 2.29 | 2.39 | 90 | 1012.5 |
| 20260501180845 | 62 | 328 | 6.0 | 12.0 | 0.00 | 2.29 | 2.39 | 90 | 1012.3 |
| 20260501180450 | 62 | 32 | 3.0 | 9.0 | 0.01 | 2.29 | 2.39 | 90 | 1012.6 |
| 20260501175949 | 62 | 309 | 5.0 | 9.0 | 0.02 | 2.29 | 2.39 | 90 | 1012.4 |
| 20260501174845 | 62 | 14 | 5.0 | 11.0 | 0.04 | 2.29 | 2.39 | 90 | 1012.0 |
| 20260501174345 | 62 | 334 | 5.0 | 11.0 | 0.05 | 2.29 | 2.39 | 90 | 1011.8 |
| 20260501173849 | 62 | 331 | 4.0 | 10.0 | 0.07 | 2.29 | 2.39 | 91 | 1012.5 |
| 20260501173845 | 62 | 296 | 4.0 | 9.0 | 0.06 | 2.29 | 2.39 | 90 | 1012.4 |
| 20260501172845 | 62 | 312 | 5.0 | 12.0 | 0.07 | 2.29 | 2.39 | 90 | 1012.4 |
| 20260501172345 | 62 | 301 | 5.0 | 12.0 | 0.08 | 2.29 | 2.39 | 90 | 1012.2 |
| 20260501171845 | 62 | 323 | 6.0 | 13.0 | 0.12 | 2.29 | 2.39 | 90 | 1012.6 |
| 20260501171349 | 62 | 35 | 4.0 | 12.0 | 0.13 | 2.29 | 2.39 | 90 | 1012.6 |
| 20260501171345 | 62 | 19 | 6.0 | 13.0 | 0.13 | 2.29 | 2.39 | 90 | 1012.4 |
| 20260501170345 | 62 | 11 | 4.0 | 9.0 | 0.12 | 2.28 | 2.38 | 91 | 1012.6 |
| 20260501165843 | 62 | 302 | 4.0 | 9.0 | 0.12 | 2.28 | 2.38 | 91 | 1012.2 |
| 20260501165344 | 62 | 351 | 3.0 | 9.0 | 0.10 | 2.26 | 2.37 | 90 | 1011.8 |
| 20260501164847 | 62 | 306 | 5.0 | 16.0 | 0.08 | 2.24 | 2.34 | 90 | 1012.0 |
| 20260501164843 | 62 | 347 | 3.0 | 11.0 | 0.09 | 2.25 | 2.35 | 90 | 1012.1 |
| 20260501163843 | 62 | 344 | 7.0 | 16.0 | 0.07 | 2.23 | 2.33 | 90 | 1011.4 |
| 20260501163344 | 62 | 346 | 7.0 | 13.0 | 0.06 | 2.22 | 2.33 | 90 | 1010.5 |
| 20260501162843 | 63 | 17 | 7.0 | 14.0 | 0.06 | 2.22 | 2.32 | 89 | 1010.5 |
| 20260501162344 | 63 | 86 | 6.0 | 14.0 | 0.05 | 2.21 | 2.32 | 89 | 1010.7 |
| 20260501161843 | 64 | 37 | 6.0 | 15.0 | 0.01 | 2.17 | 2.28 | 89 | 1011.0 |
| 20260501161343 | 64 | 84 | 7.0 | 15.0 | 0.00 | 2.16 | 2.26 | 89 | 1011.0 |
| 20260501160847 | 64 | 40 | 7.0 | 16.0 | 0.00 | 2.16 | 2.26 | 90 | 1010.2 |
| 20260501160843 | 64 | 56 | 7.0 | 16.0 | 0.00 | 2.16 | 2.26 | 89 | 1010.5 |
| 20260501155846 | 63 | 37 | 7.0 | 13.0 | 0.00 | 2.16 | 2.26 | 91 | 1010.7 |
| 20260501155842 | 64 | 38 | 7.0 | 14.0 | 0.00 | 2.16 | 2.26 | 91 | 1010.5 |
| 20260501154840 | 63 | 53 | 6.0 | 13.0 | 0.01 | 2.16 | 2.26 | 91 | 1011.1 |
| 20260501154341 | 63 | 36 | 7.0 | 14.0 | 0.10 | 2.16 | 2.26 | 92 | 1011.1 |
| 20260501154337 | 63 | 21 | 5.0 | 12.0 | 0.08 | 2.16 | 2.26 | 92 | 1011.1 |
| 20260501153337 | 62 | 22 | 8.0 | 16.0 | 0.10 | 2.16 | 2.26 | 92 | 1011.1 |
| 20260501152837 | 62 | 35 | 8.0 | 16.0 | 0.10 | 2.16 | 2.26 | 92 | 1011.2 |
| 20260501152341 | 62 | 325 | 9.0 | 16.0 | 0.10 | 2.16 | 2.26 | 92 | 1011.1 |
| 20260501152337 | 62 | 15 | 9.0 | 18.0 | 0.10 | 2.16 | 2.26 | 92 | 1010.9 |
| 20260501151331 | 62 | 337 | 9.0 | 19.0 | 0.10 | 2.16 | 2.26 | 92 | 1011.1 |
| 20260501150831 | 62 | 42 | 8.0 | 19.0 | 0.10 | 2.16 | 2.26 | 92 | 1010.9 |
| 20260501150331 | 61 | 32 | 7.0 | 14.0 | 0.10 | 2.16 | 2.26 | 92 | 1011.1 |
| 20260501145841 | 60 | 23 | 7.0 | 15.0 | 0.09 | 2.15 | 2.25 | 92 | 1011.7 |
| 20260501145836 | 61 | 74 | 7.0 | 15.0 | 0.10 | 2.16 | 2.26 | 92 | 1011.7 |
| 20260501145832 | 61 | 32 | 7.0 | 14.0 | 0.10 | 2.16 | 2.26 | 92 | 1011.6 |
| 20260501144329 | 60 | 13 | 6.0 | 15.0 | 0.01 | 2.07 | 2.18 | 92 | 1012.2 |